[ show orbit diagram ]
Orbital Elements at Epoch 2459200.5 (2020-Dec-17.0) TDB
Reference: JPL 36 (heliocentric ecliptic J2000)
Element | Value | Uncertainty (1-sigma) | Units |
e | .2110793659903485 | 2.8446e-08 | |
a | 2.55699993000406 | 7.1877e-09 | au |
q | 2.017270005941437 | 7.4022e-08 | au |
i | 7.32487662716983 | 2.6164e-06 | deg |
node | 225.2134018030787 | 2.9886e-05 | deg |
peri | 157.796560256893 | 3.1074e-05 | deg |
M | 163.6474092495318 | 9.6867e-06 | deg |
tp | 2458521.607306647568 (2019-Feb-07.10730665) | 3.8682e-05 | TDB |
period | 1493.463115167371 4.09 | 6.2972e-06 1.724e-08 | d yr |
n | .2410504794821498 | 1.0164e-09 | deg/d |
Q | 3.096729854066682 | 8.7049e-09 | au |
|
| | Orbit Determination Parameters
Additional Information
|
[ show covariance matrix ]
Physical Parameter Table
Parameter |
Symbol |
Value |
Units |
Sigma |
Reference |
Notes |
absolute magnitude |
H |
13.49 |
|
n/a |
E2021B10 |
|
diameter |
diameter |
4.537 |
km |
0.090 |
urn:nasa:pds:neowise_diameters_albedos::2.0[mainbelt] (http://adsabs.harvard.edu/abs/2011ApJ...741...68M) |
|
rotation period |
rot_per |
40.32 |
h |
n/a |
LCDB (Rev. 2020-October); Warner et al., 2009 |
Result based on fragmentary lightcurve(s), may be completely wrong. Published Reference List: [Behrend, R. (2006) Observatoire de Geneve web site, http://obswww.unige.ch/~behrend/page_cou.html] |
geometric albedo |
albedo |
0.201 |
|
0.033 |
urn:nasa:pds:neowise_diameters_albedos::2.0[mainbelt] (http://adsabs.harvard.edu/abs/2012ApJ...759L...8M) |
|
|
14032 Mego | Discovered 1994 Dec. 4 by M. Koishikawa at the Ayashi Station of the Sendai Astronomical Observatory. |
Princess Mego (1568-1653) was the wife of Datemasamune, a feudal lord in the Sendai area. After marriage she took the name Yotuko-in. Her birthplace in Miharu, Fukushima prefecture, is famous for a very old cherry tree, Takisakura. A seedling planted near the Sendai Observatory is known as the "Princess Mego Cherry Tree". |
NOTE: some special characters may not display properly (any characters within {} are an attempt to place the proper accent above a character) |
Reference: 20070730/MPCPages.arc | Last Updated: 2007-08-07 |
|
[ show close-approach data ]
Alternate Designations
1994 XP = 1953 XX1 = 1998 QJ93 |
|
|
|